Skovde Flygplats, Sweden

5:37 PM CEST on April 20, 2018 (GMT +0200)
Skovde

Weather History for ESGR - February, 2013

Change the Weather History Date:

Friday, February 22, 2013

  Actual Average Record
Temperature  
Mean Temperature 14 °F -  
Max Temperature 21 °F - - ()
Min Temperature 8 °F - - ()
Degree Days  
Heating Degree Days 50    
Moisture  
Dew Point 14 °F    
Average Humidity 96    
Maximum Humidity 100    
Minimum Humidity 92    
Precipitation  
Precipitation 0.00 in - - ()
Sea Level Pressure  
Sea Level Pressure 30.27 in    
Wind  
Wind Speed 2 mph ()    
Max Wind Speed 7 mph    
Max Gust Speed -    
Visibility 6.0 miles    
Events      
T = Trace of Precipitation, MM = Missing Value Source: Averaged Metar Reports

Daily Weather History Graph

Daily Weather History Graph

Search for Another Location

Airport or City:

Astronomy

Feb. 22, 2013 Rise Set
Actual Time 7:18 AM CET 5:17 PM CET
Civil Twilight 6:37 AM CET 5:58 PM CET
Nautical Twilight 5:51 AM CET 6:44 PM CET
Astronomical Twilight 5:05 AM CET 7:30 PM CET
Moon 1:42 PM CET (2/22) 5:24 AM CET (2/22)
Length of Visible Light 11h 20m
Length of Day
9h 59m
Waxing Gibbous, 88% of the Moon is Illuminated
Feb 22
Waxing Gibbous
Feb 25
Full
Mar 4
Last Quarter
Mar 11
New
Mar 19
First Quarter

Hourly Weather History & Observations

Time (CET) Temp. Windchill Dew Point Humidity Pressure Visibility Wind Dir Wind Speed Gust Speed Precip Events Conditions
12:20 AM 17.6 °F - 15.8 °F 93% 30.30 in 6.2 mi Variable 2.3 mph - N/A   Overcast
12:50 AM 15.8 °F - 15.8 °F 100% 30.30 in 6.2 mi Variable 2.3 mph - N/A   Overcast
1:20 AM 15.8 °F 10.2 °F 15.8 °F 100% 30.30 in 6.2 mi South 3.5 mph - N/A   Overcast
1:50 AM 15.8 °F 10.2 °F 15.8 °F 100% 30.30 in 6.2 mi SSW 3.5 mph - N/A   Overcast
2:20 AM 15.8 °F - 15.8 °F 100% 30.30 in 6.2 mi Variable 2.3 mph - N/A   Overcast
2:50 AM 15.8 °F 10.2 °F 15.8 °F 100% 30.30 in 6.2 mi SSW 3.5 mph - N/A   Overcast
3:20 AM 15.8 °F 10.2 °F 15.8 °F 100% 30.30 in 6.2 mi South 3.5 mph - N/A   Overcast
3:50 AM 15.8 °F 8.6 °F 15.8 °F 100% 30.27 in 6.2 mi South 4.6 mph - N/A   Overcast
4:20 AM 14.0 °F 6.5 °F 14.0 °F 100% 30.27 in 6.2 mi SSW 4.6 mph - N/A   Overcast
4:50 AM 12.2 °F 6.1 °F 12.2 °F 100% 30.27 in 6.2 mi South 3.5 mph - N/A   Mostly Cloudy
5:20 AM 14.0 °F 8.2 °F 12.2 °F 93% 30.27 in 6.2 mi South 3.5 mph - N/A   Unknown
5:50 AM 12.2 °F - 12.2 °F 100% 30.27 in 5.0 mi Calm Calm - N/A   Mostly Cloudy
6:20 AM 14.0 °F - 12.2 °F 93% 30.27 in 3.7 mi Calm Calm - N/A   Partly Cloudy
6:50 AM 12.2 °F - 10.4 °F 92% 30.27 in 5.6 mi North 2.3 mph - N/A   Scattered Clouds
7:20 AM 10.4 °F - 8.6 °F 92% 30.27 in 6.2 mi Calm Calm - N/A   Overcast
7:50 AM 12.2 °F - 10.4 °F 92% 30.27 in 6.2 mi Calm Calm - N/A   Overcast
8:20 AM 14.0 °F - 14.0 °F 100% 30.27 in 6.2 mi Calm Calm - N/A   Overcast
8:50 AM 15.8 °F - 14.0 °F 93% 30.27 in 5.0 mi Calm Calm - N/A   Overcast
9:20 AM 15.8 °F - 15.8 °F 100% 30.27 in 5.0 mi Variable 1.2 mph - N/A   Overcast
9:50 AM 15.8 °F - 15.8 °F 100% 30.27 in 6.2 mi NNE 2.3 mph - N/A   Overcast
10:20 AM 15.8 °F - 15.8 °F 100% 30.27 in 6.2 mi NNE 1.2 mph - N/A   Overcast
10:50 AM 17.6 °F 10.7 °F 15.8 °F 93% 30.27 in 5.6 mi NNE 4.6 mph - N/A   Overcast
11:20 AM 17.6 °F - 17.6 °F 100% 30.27 in 4.3 mi NNE 2.3 mph - N/A   Overcast
11:50 AM 17.6 °F - 17.6 °F 100% 30.27 in 6.2 mi NNE 2.3 mph - N/A   Overcast
12:20 PM 19.4 °F - 19.4 °F 100% 30.27 in 6.2 mi Variable 1.2 mph - N/A   Overcast
12:50 PM 19.4 °F 14.3 °F 17.6 °F 93% 30.27 in 6.2 mi SSE 3.5 mph - N/A   Mostly Cloudy
1:20 PM 19.4 °F 12.8 °F 17.6 °F 93% 30.27 in 6.2 mi NNE 4.6 mph - N/A   Scattered Clouds
1:50 PM 19.4 °F 10.4 °F 19.4 °F 100% 30.27 in 5.6 mi NE 6.9 mph - N/A   Overcast
2:20 PM 19.4 °F 12.8 °F 17.6 °F 93% 30.24 in 6.2 mi NE 4.6 mph - N/A   Overcast
2:50 PM 21.2 °F 16.4 °F 19.4 °F 93% 30.24 in 6.2 mi NE 3.5 mph - N/A   Overcast
3:20 PM 19.4 °F 14.3 °F 17.6 °F 93% 30.24 in 6.2 mi NNE 3.5 mph - N/A   Partly Cloudy
3:50 PM 19.4 °F - 17.6 °F 93% 30.24 in 6.2 mi North 2.3 mph - N/A   Unknown
4:20 PM 19.4 °F 14.3 °F 17.6 °F 93% 30.24 in 6.2 mi NNE 3.5 mph - N/A   Unknown
4:50 PM 17.6 °F - 15.8 °F 93% 30.24 in 6.2 mi Calm Calm - N/A   Unknown
5:20 PM 15.8 °F - 15.8 °F 100% 30.24 in 6.2 mi Calm Calm - N/A   Scattered Clouds
5:50 PM 14.0 °F - 14.0 °F 100% 30.24 in - Calm Calm - N/A   Mostly Cloudy
6:20 PM 14.0 °F - 12.2 °F 93% 30.24 in 5.0 mi SSW 2.3 mph - N/A   Overcast
6:50 PM 14.0 °F - 12.2 °F 93% 30.24 in 6.2 mi Calm Calm - N/A   Overcast
7:20 PM 12.2 °F - 12.2 °F 100% 30.27 in 6.2 mi South 2.3 mph - N/A   Overcast
7:50 PM 10.4 °F - 10.4 °F 100% 30.27 in 6.2 mi Calm Calm - N/A   Mostly Cloudy
8:20 PM 10.4 °F - 8.6 °F 92% 30.27 in 6.2 mi SSW 2.3 mph - N/A   Mostly Cloudy
8:50 PM 10.4 °F - 8.6 °F 92% 30.27 in 6.2 mi South 1.2 mph - N/A   Unknown
9:20 PM 8.6 °F - 6.8 °F 92% 30.27 in 6.2 mi South 2.3 mph - N/A   Unknown
9:50 PM 8.6 °F - 6.8 °F 92% 30.27 in 6.2 mi SSW 2.3 mph - N/A   Scattered Clouds
10:20 PM 10.4 °F - 8.6 °F 92% 30.27 in 6.2 mi South 2.3 mph - N/A   Overcast
10:50 PM 12.2 °F - 10.4 °F 92% 30.27 in 6.2 mi Calm Calm - N/A   Overcast
11:20 PM 10.4 °F - 10.4 °F 100% 30.27 in 6.2 mi South 1.2 mph - N/A   Partly Cloudy
11:50 PM 10.4 °F - 8.6 °F 92% 30.27 in 6.2 mi SSW 2.3 mph - N/A   Unknown